Showing default

YAOGAN-34 03, 54249

Orbit data source: Space-Track

YAOGAN-34 03, 54249 is a payload satellite owned by PLA SSF (CN) in LEO that was launched on Tue, 15 Nov 2022 UTC via a CHANG ZHENG 4C launch vehicle from the Jiuquan Satellite Launch Center, China (JSC). Payload-class satellites include a variety of spacecraft equipped with specific instruments for various scientific and technological missions. These include communications satellites like Starlink; space stations such as the ISS; scientific satellites like the Hubble; Earth observation satellites from companies like Planet Labs, Umbra, and HawkEye 360; GPS; miniature CubeSats for education and research; and military/defense satellites.

Loading next visibility...
Identifier
54249, 2022-154A
Orbit
LEO
Country
Flag of CNCN / PRC
Related business
Manufacturer
SAST
Mission
Operational Defense Imaging
Bus & Motor
Unknown
Mass
~500 kg wet, ~500 kg dry
Launch date (UTC)
2022-11-15 (4 years ago)
Launch vehicle
CHANG ZHENG 4C
Launch site
Jiuquan Satellite Launch Center, China (JSC)
Object type
Payload
Rocket body
Debris
Shape & HBR
Box + 2 Pan, 0.5 m
Radar Cross Section
0.446 m², Large (>1 m²)

Expand to show TLE details & history
Last TLE update: 21 hours ago

TLE from 21 hours ago
0 YAOGAN-34 03
1 54249U 22154A   26172.55211727 -.00000081  00000-0  15342-4 0  9995
2 54249  63.4053 250.9788 0076843 355.5066   4.5262 13.45439941176842
Epoch: 2026-06-21T13:15Z
TLE epoch observation values (Epoch: 2026-06-21T13:15:02.932Z)
Latitude
0.00003°
Longitude
142.46585°
Altitude
1,033.644 km
Speed
7.364 km/s
True Right ascension
16h 43m 54s
True Declination
0° 00' 00"
Sunlit
Object was in full shadow at epoch
Visualization orbit readout
Latitude
Unknown
Longitude
Unknown
Altitude
Unknown
Speed
Unknown
Apparent Right ascension
Unknown
Apparent Declination
Unknown
Sunlit
N/A
Visualization observer readout
Local Sidereal Time
21:27:25
Azimuth
Unknown
Elevation
Unknown
Doppler factor
Unknown
Orbital elements
Apogee altitude
1,145.283 km
Perigee altitude
1,030.541 km
Semi-major axis
7,466.049 km
Eccentricity
0.00768
Inclination
63.4053°
RAAN
250.9788°
Arg. of periapsis
355.5066°
True anomaly
4.59636°
Mean anomaly
4.5262°
Eccentric anomaly
4.56121°
Mean motion
3.36439 °/min
Orbital period
107 mins
BSTAR
0.000015342
Loading maneuver chart data...
Computing Atmospheric mass density...
Loading historical data...
Loading historical data...
Loading historical data...
Loading historical data...
Loading historical data...
Loading historical data...
Loading historical data...
Other satellites on launch #154 in the year 2022 (2022-11-15 UTC)

Documentation

Showing up to 5 results
|